Kecskemet, Hungary

11:27 AM CEST on July 23, 2017 (GMT +0200)
Kecskemet

Weather History for LHKE - February, 2014

Change the Weather History Date:

Friday, February 14, 2014

  Actual Average (LHBP) Record (LHBP)
Temperature  
Mean Temperature 40 °F -  
Max Temperature 48 °F 40 °F 57 °F (1998)
Min Temperature 28 °F 24 °F 0 °F (2003)
Degree Days  
Heating Degree Days 25    
Moisture  
Dew Point 33 °F    
Average Humidity 74    
Maximum Humidity 93    
Minimum Humidity 42    
Precipitation  
Precipitation 0.00 in - - ()
Sea Level Pressure  
Sea Level Pressure 29.84 in    
Wind  
Wind Speed 8 mph ()    
Max Wind Speed 22 mph    
Max Gust Speed 27 mph    
Visibility 6.7 miles    
Events Rain    
Averages and records for this station are not official NWS values.
T = Trace of Precipitation, MM = Missing Value Source: Averaged Metar Reports

Daily Weather History Graph

Daily Weather History Graph

Search for Another Location

Airport or City:

Trip Planner

Search our weather history database for the weather conditions in past years. The results will help you decide how hot, cold, wet, or windy it might be!

Date:

Astronomy

Feb. 14, 2014 Rise Set
Actual Time 6:47 AM CET 5:03 PM CET
Civil Twilight 6:15 AM CET 5:35 PM CET
Nautical Twilight 5:40 AM CET 6:10 PM CET
Astronomical Twilight 5:05 AM CET 6:45 PM CET
Moon 4:53 PM CET (2/14) 6:03 AM CET (2/14)
Length of Visible Light 11h 19m
Length of Day
10h 16m
Full, 100% of the Moon is Illuminated
Feb 14
Full
Feb 15
Full
Feb 22
Last Quarter
Mar 1
New
Mar 8
First Quarter

Hourly Weather History & Observations

Time (CET) Temp. Windchill Dew Point Humidity Pressure Visibility Wind Dir Wind Speed Gust Speed Precip Events Conditions
12:00 AM 34 °F - 30 °F 79% 29.76 in 6 mi SSE 6.7 mph - -   Scattered Clouds
12:15 AM 33.8 °F 27.9 °F 30.2 °F 87% 29.71 in - SSE 6.7 mph - N/A   Clear
12:45 AM 35.6 °F 30.0 °F 30.2 °F 81% 29.71 in - SSE 6.7 mph - N/A   Clear
1:00 AM 35 °F - 30 °F 74% 29.75 in 6 mi SSE 6.7 mph - -   Partly Cloudy
1:15 AM 33.8 °F 29.7 °F 30.2 °F 87% 29.71 in - SSE 4.5 mph - N/A   Clear
1:45 AM 33.8 °F 29.7 °F 30.2 °F 87% 29.71 in - SSE 4.5 mph - N/A   Clear
2:00 AM 34 °F - 31 °F 82% 29.75 in 6 mi SSE 4.5 mph - -   Partly Cloudy
2:15 AM 35.6 °F 30.0 °F 32.0 °F 87% 29.71 in 6.2 mi SSE 6.7 mph - N/A   Mostly Cloudy
2:45 AM 35.6 °F 30.0 °F 32.0 °F 87% 29.71 in 6.2 mi SSE 6.7 mph - N/A   Mostly Cloudy
3:00 AM 35 °F - 32 °F 83% 29.73 in 6 mi SSE 6.7 mph - -   Mostly Cloudy
3:15 AM 35.6 °F 30.0 °F 32.0 °F 87% 29.71 in 5.0 mi SSE 6.7 mph - N/A   Overcast
3:45 AM 35.6 °F - 33.8 °F 93% 29.71 in 3.1 mi South 2.2 mph - N/A Rain Light Rain
4:00 AM 36 °F - 33 °F 87% 29.73 in 3 mi South 2.2 mph - - Rain Light Rain
4:15 AM 37.4 °F - 33.8 °F 87% 29.71 in 2.5 mi SSW 2.2 mph - N/A Rain Light Rain
4:45 AM 37.4 °F - 35.6 °F 93% 29.71 in 1.9 mi SSW 2.2 mph - N/A Rain Light Rain
5:00 AM 37 °F - 35 °F 90% 29.75 in 2 mi SSW 2.2 mph - - Rain Light Rain
5:15 AM 37.4 °F - 35.6 °F 93% 29.71 in 1.9 mi SSW 2.2 mph - N/A Rain Light Rain
5:45 AM - - - N/A% - 3.7 mi WSW 6.7 mph - N/A   Overcast
6:00 AM 39 °F - 37 °F 91% 29.75 in 2 mi SW 4.5 mph - - Rain Light Rain
6:15 AM 39.2 °F - 37.4 °F 93% 29.71 in 2.5 mi West 2.2 mph - N/A   Overcast
6:45 AM 39.2 °F 34.4 °F 37.4 °F 93% 29.74 in 2.5 mi WSW 6.7 mph - N/A   Overcast
7:00 AM 40 °F - 38 °F 88% 29.77 in 2 mi WSW 6.7 mph - - Rain Light Rain
7:15 AM 41.0 °F 35.4 °F 39.2 °F 93% 29.74 in 3.1 mi WSW 8.9 mph - N/A   Overcast
7:45 AM 41.0 °F 34.4 °F 39.2 °F 93% 29.77 in 5.0 mi West 11.2 mph - N/A   Overcast
8:00 AM 41 °F - 39 °F 88% 29.78 in 5 mi West 11.2 mph - -   Partly Cloudy
8:15 AM 42.8 °F 37.6 °F 39.2 °F 87% 29.77 in 6.2 mi WSW 8.9 mph - N/A   Overcast
8:45 AM - - - N/A% - 5.0 mi WNW 8.9 mph - N/A Rain Light Rain
8:56 AM 44.6 °F 39.8 °F 39.2 °F 81% 29.77 in 6.2 mi West 8.9 mph - N/A Rain Light Rain
9:00 AM 43 °F - 40 °F 84% 29.79 in 6 mi West 8.9 mph - -   Mostly Cloudy
9:15 AM 44.6 °F 39.8 °F 39.2 °F 81% 29.77 in 6.2 mi West 8.9 mph - N/A Rain Light Rain
9:45 AM 44.6 °F 38.9 °F 41.0 °F 87% 29.77 in 6.2 mi West 11.2 mph - N/A Rain Light Rain
10:00 AM 45 °F - 40 °F 77% 29.81 in 6 mi West 11.2 mph - - Rain Light Rain
10:15 AM 46.4 °F 39.9 °F 39.2 °F 76% 29.80 in 6.2 mi WNW 15.7 mph - N/A   Mostly Cloudy
10:45 AM 46.4 °F 39.3 °F 37.4 °F 71% 29.80 in 6.2 mi NW 17.9 mph - N/A   Mostly Cloudy
11:00 AM 47 °F - 37 °F 58% 29.83 in 12 mi NW 17.9 mph - - Rain Light Rain
11:01 AM 46.4 °F 39.9 °F 37.4 °F 71% 29.80 in 6.2 mi NW 15.7 mph 26.8 mph N/A   Mostly Cloudy
11:15 AM 46.4 °F 39.3 °F 37.4 °F 71% 29.83 in 6.2 mi NW 17.9 mph - N/A   Mostly Cloudy
11:45 AM - - - N/A% - 6.2 mi WNW 8.9 mph - N/A   Mostly Cloudy
12:00 PM 47 °F - 37 °F 57% 29.84 in 12 mi NNW 20.1 mph - -   Partly Cloudy
12:15 PM 48.2 °F - 35.6 °F 62% 29.83 in 6.2 mi NW 22.4 mph - N/A   Mostly Cloudy
12:45 PM 48.2 °F - 33.8 °F 58% 29.83 in 6.2 mi NW 17.9 mph - N/A   Mostly Cloudy
1:00 PM 48 °F - 35 °F 48% 29.86 in 19 mi NW 17.9 mph - -   Partly Cloudy
1:15 PM 48.2 °F - 33.8 °F 58% 29.86 in 6.2 mi NW 17.9 mph - N/A   Mostly Cloudy
1:45 PM 48.2 °F - 33.8 °F 58% 29.86 in 6.2 mi NW 13.4 mph - N/A   Overcast
2:00 PM 47 °F - 34 °F 48% 29.87 in 19 mi NW 13.4 mph - -   Overcast
2:15 PM 48.2 °F - 32.0 °F 54% 29.86 in 6.2 mi NW 17.9 mph - N/A   Mostly Cloudy
2:45 PM - - - N/A% - - WNW 8.9 mph - N/A   Clear
3:00 PM 47 °F - 31 °F 42% 29.89 in 19 mi NW 17.9 mph - -   Mostly Cloudy
3:15 PM 48.2 °F - 32.0 °F 54% 29.89 in - NW 15.7 mph - N/A   Clear
3:45 PM 46.4 °F 40.5 °F 32.0 °F 57% 29.89 in - WNW 13.4 mph - N/A   Clear
4:00 PM 47 °F - 31 °F 43% 29.91 in 19 mi WNW 13.4 mph - -   Mostly Cloudy
4:15 PM 46.4 °F 41.2 °F 32.0 °F 57% 29.89 in - NW 11.2 mph - N/A   Clear
4:45 PM 44.6 °F 38.9 °F 32.0 °F 61% 29.92 in - NW 11.2 mph - N/A   Clear
5:00 PM 45 °F - 31 °F 46% 29.93 in 25 mi NW 11.2 mph - -   Mostly Cloudy
5:15 PM 42.8 °F 37.6 °F 30.2 °F 61% 29.92 in - WNW 8.9 mph - N/A   Clear
5:45 PM - - - N/A% - - WNW 8.9 mph - N/A   Clear
6:00 PM 40 °F - 30 °F 56% 29.96 in 25 mi WNW 8.9 mph - -   Scattered Clouds
6:15 PM 37.4 °F 30.9 °F 30.2 °F 75% 29.95 in - WNW 8.9 mph - N/A   Clear
6:45 PM 37.4 °F 30.9 °F 28.4 °F 70% 29.98 in - WNW 8.9 mph - N/A   Clear
7:00 PM 37 °F - 29 °F 64% 29.99 in 25 mi WNW 8.9 mph - -   Scattered Clouds
7:15 PM 35.6 °F 28.7 °F 28.4 °F 75% 29.98 in - WNW 8.9 mph - N/A   Clear
7:45 PM 37.4 °F 30.9 °F 28.4 °F 70% 29.98 in - WNW 8.9 mph - N/A   Clear
8:00 PM 37 °F - 29 °F 62% 30.01 in 12 mi WNW 8.9 mph - -   Scattered Clouds
8:15 PM 35.6 °F 30.0 °F 28.4 °F 75% 30.01 in - WNW 6.7 mph - N/A   Clear
8:45 PM - - - N/A% - 3.1 mi WNW 6.7 mph - N/A   Clear
9:00 PM 34 °F - 28 °F 70% 30.04 in 12 mi WNW 8.9 mph - -   Scattered Clouds
9:15 PM 33.8 °F 27.9 °F 26.6 °F 75% 30.01 in - WNW 6.7 mph - N/A   Clear
9:45 PM 33.8 °F 27.9 °F 26.6 °F 75% 30.01 in - WNW 6.7 mph - N/A   Clear
10:00 PM 34 °F - 27 °F 66% 30.05 in 12 mi WNW 6.7 mph - -   Scattered Clouds
10:15 PM 32.0 °F 27.6 °F 26.6 °F 80% 30.01 in - WNW 4.5 mph - N/A   Clear
10:45 PM 32.0 °F 27.6 °F 24.8 °F 75% 30.04 in - WNW 4.5 mph - N/A   Clear
11:00 PM 32 °F - 25 °F 68% 30.06 in 9 mi WNW 4.5 mph - -   Clear
11:15 PM 28.4 °F - 23.0 °F 80% 30.04 in - NW 2.2 mph - N/A   Clear
11:45 PM - - - N/A% - 0.9 mi North - - N/A   Mist